Location: St. Louis
(38.6270°N, 90.1994°W)
Time: 07:20:06
(UTC-06:00)

deb Explorer IX - Pass Details

Date: 30 November 2021
Orbit: 544 x 1082 km, 38.8° (Epoch: 19 January)

Event Time Altitude Azimuth Distance (km) Brightness Sun altitude
Rises 10:42:06 0° 223° (SW) 2,945 ? 27.6°
Reaches altitude 10° 10:44:48 10° 212° (SSW) 1,960 ? 27.7°
Maximum altitude 10:48:36 27° 153° (SSE) 1,102 ? 27.9°
Drops below altitude 10° 10:52:08 10° 94° (E) 1,825 ? 28.1°
Sets 10:54:33 0° 82° (E) 2,700 ? 28.3°
